Weather History for Cucuta, Colombia

Change the Weather History Date:

Thursday, June 27, 2013

  Actual Average (SVSA) Record (SVSA)
Temperature  
Mean Temperature 87 °F -  
Max Temperature 97 °F 91 °F 95 °F (2013)
Min Temperature 77 °F 73 °F 68 °F (2005)
Cooling Degree Days 22    
Growing Degree Days 37 (Base 50)    
Moisture  
Dew Point 65 °F    
Average Humidity 45    
Maximum Humidity 62    
Minimum Humidity 28    
Precipitation  
Precipitation 0.00 in 0.04 in - ()
Sea Level Pressure  
Sea Level Pressure 29.85 in    
Wind  
Wind Speed 16 mph ()    
Max Wind Speed 37 mph    
Max Gust Speed 22 mph    
Visibility 7.3 miles    
Events      
Averages and records for this station are not official NWS values.
T = Trace of Precipitation, MM = Missing Value Source: Averaged Metar Reports

Daily Weather History Graph

Daily Weather History Graph

Search for Another Location

Airport:

Trip Planner

Search our weather history database for the weather conditions in past years. The results will help you decide how hot, cold, wet, or windy it might be!

Date:

Astronomy

Jun. 27, 2013 Rise Set
Actual Time 5:35 AM COT 6:10 PM COT
Civil Twilight 5:12 AM COT 6:33 PM COT
Nautical Twilight 4:46 AM COT 7:00 PM COT
Astronomical Twilight 4:18 AM COT 7:27 PM COT
Moon 10:09 PM COT (6/27) 9:37 AM COT (6/27)
Length of Visible Light 13h 20m
Length of Day
12h 34m
Waning Gibbous, 76% of the Moon is Illuminated
Jun 27
Waning Gibbous
Jun 29
Last Quarter
Jul 8
New
Jul 15
First Quarter
Jul 22
Full

Hourly Weather History & Observations

Time (COT) Temp. Heat Index Dew Point Humidity Pressure Visibility Wind Dir Wind Speed Gust Speed Precip Events Conditions
5:00 AM - - - N/A% 29.92 in 6.2 mi South 9.2 mph - N/A   Scattered Clouds
5:30 AM - - - N/A% 29.92 in 6.2 mi South 11.5 mph - N/A   Scattered Clouds
6:00 AM 80.6 °F 82.7 °F 66.2 °F 61% 29.92 in 6.2 mi South 6.9 mph - N/A   Scattered Clouds
7:00 AM 82 °F - 69 °F 56% 29.80 in 12 mi South 11.2 mph - -   Scattered Clouds
7:00 AM 82.4 °F 85.4 °F 68.0 °F 62% 29.92 in 6.2 mi South 11.5 mph - N/A   Partly Cloudy
8:00 AM 86.0 °F 89.4 °F 68.0 °F 55% 29.94 in 6.2 mi South 23.0 mph - N/A   Partly Cloudy
9:00 AM 89.6 °F 92.2 °F 66.2 °F 46% 29.92 in 6.2 mi SSE 36.8 mph - N/A   Partly Cloudy
10:00 AM 90 °F - 69 °F 40% 29.82 in 12 mi SSE 26.8 mph - -   Scattered Clouds
10:00 AM 91.4 °F 95.4 °F 68.0 °F 46% 29.92 in 6.2 mi SSE 27.6 mph - N/A   Partly Cloudy
11:00 AM 93.2 °F 97.7 °F 68.0 °F 44% 29.92 in 6.2 mi SSE 27.6 mph - N/A   Partly Cloudy
12:00 PM 93.2 °F 97.7 °F 68.0 °F 44% 29.88 in 6.2 mi SSE 27.6 mph - N/A   Partly Cloudy
1:00 PM 95 °F - 65 °F 28% 29.73 in 12 mi SSE 20.1 mph - -   Scattered Clouds
1:00 PM 95.0 °F 98.5 °F 66.2 °F 39% 29.85 in 6.2 mi SSE 20.7 mph - N/A   Partly Cloudy
2:00 PM 96.8 °F 98.0 °F 62.6 °F 32% 29.81 in 6.2 mi SE 25.3 mph - N/A   Partly Cloudy
3:00 PM 96.8 °F 98.0 °F 62.6 °F 32% 29.80 in 6.2 mi SSE 23.0 mph - N/A   Partly Cloudy
4:00 PM 90 °F - 62 °F 29% 29.68 in 12 mi SSE 20.1 mph - -   Scattered Clouds
4:00 PM 89.6 °F 90.1 °F 62.6 °F 40% 29.80 in 6.2 mi SSE 20.7 mph - N/A   Partly Cloudy
5:00 PM 87.8 °F 87.6 °F 60.8 °F 40% 29.82 in 6.2 mi SE 18.4 mph - N/A   Mostly Cloudy
6:00 PM 87.8 °F 88.5 °F 62.6 °F 43% 29.84 in 6.2 mi SE 16.1 mph - N/A   Mostly Cloudy
7:00 PM 85 °F - 65 °F 42% 29.74 in 9 mi South 17.9 mph - -   Scattered Clouds
7:00 PM 84.2 °F 86.6 °F 66.2 °F 55% 29.86 in 6.2 mi South 17.3 mph - N/A   Scattered Clouds
8:00 PM 84.2 °F 85.6 °F 64.4 °F 51% 29.90 in 6.2 mi South 18.4 mph - N/A   Scattered Clouds
9:00 PM 82.4 °F 83.9 °F 64.4 °F 54% 29.90 in 6.2 mi South 16.1 mph - N/A   Scattered Clouds
10:00 PM 84 °F - 64 °F 41% 29.79 in 9 mi South 11.2 mph - -   Scattered Clouds
10:00 PM 84.2 °F 85.6 °F 64.4 °F 51% 29.91 in 6.2 mi South 10.4 mph 21.9 mph N/A   Scattered Clouds
11:00 PM 84.2 °F 85.6 °F 64.4 °F 51% 29.91 in 6.2 mi SSE 19.6 mph - N/A   Scattered Clouds